Regional Weather Roundup
Issued by NWS

Home | Current Version | Previous Version | Text Only | Print | Product List | Glossary Off
Versions: 1 2 3 4 5 6 7 8 9 10 11 12 13 14 15 16 17 18 19 20 21 22 23 24 25 26 27 28 29 30 31 32 33 34 35 36 37 38 39 40 41 42 43 44 45 46 47 48 49 50

000
ASUS43 KIND 211200
RWRIN

WEATHER ROUNDUP FOR INDIANA
NATIONAL WEATHER SERVICE INDIANAPOLIS IN
800 AM EDT SAT OCT 21 2017

NOTE: "FAIR" INDICATES FEW OR NO CLOUDS BELOW 12,000 FEET WITH NO
SIGNIFICANT WEATHER AND/OR OBSTRUCTIONS TO VISIBILITY.

* - STATION DOES NOT REPORT WEATHER SUCH AS PRECIPITATION OR FOG.

+ - STATION NOT QUALITY CONTROLLED BY THE NATIONAL WEATHER SERVICE.
    USE DATA WITH CAUTION...ESPECIALLY DEWPOINT AND RELATIVE
    HUMIDITY OBSERVATIONS.

INZ001>003-010>013-019-020-211300-
NORTHWEST INDIANA

CITY           SKY/WX    TMP DP  RH WIND       PRES   REMARKS
GARY /AIRPORT/ MOCLDY    59  48  67 S9        30.10R
MONTICELLO +   MOCLDY    55  51  88 SE3       30.14S
6HR MIN TEMP:  54; 6HR MAX TEMP:  58;


$$

LMZ046-743>745-211300-
SOUTHERN LAKE MICHIGAN

STATION/POSITION TIME  TEMP    WIND        PRES    WAVE
                       AIR SEA DIR/SP/G            HT
                 (UTC) (F)     (DEG/KT/KT) (MB)    (FT)
BURNS HARBOR     1140   60     180/ 14/ 18 1019.0F
MICHIGAN CITY    1130   62     160/ 13/ 16   N/A
5NW MICH CITY    1150   59 58  180/ 14/ 17   N/A     1

$$

INZ004-005-014>016-021>024-211300-
NORTH CENTRAL INDIANA

CITY           SKY/WX    TMP DP  RH WIND       PRES   REMARKS
ELKHART        CLEAR     55  48  76 S5        30.15
GOSHEN         PTCLDY    55  47  74 SE9       30.16R
6HR MIN TEMP:  55; 6HR MAX TEMP:  61;

PERU/GRISSOM   MOCLDY    54  51  90 S6        30.16S
6HR MIN TEMP:  52; 6HR MAX TEMP:  55;

SOUTH BEND     CLOUDY    57  50  77 S7        30.15R
6HR MIN TEMP:  56; 6HR MAX TEMP:  59;


$$

INZ006>009-017-018-025>027-211300-
NORTHEAST INDIANA

CITY           SKY/WX    TMP DP  RH WIND       PRES   REMARKS
FORT WAYNE     MOCLDY    50  47  89 SE5       30.19S
6HR MIN TEMP:  49; 6HR MAX TEMP:  55;

KENDALLVILLE + MOCLDY    53  50  90 S7        30.18F

$$

INZ028-029-035-036-043>045-051>053-211300-
WEST CENTRAL INDIANA

CITY           SKY/WX    TMP DP  RH WIND       PRES   REMARKS
LAFAYETTE      MOCLDY    53  49  86 S3        30.15R
6HR MIN TEMP:  51; 6HR MAX TEMP:  58;

TERRE HAUTE    PTCLDY    47  44  90 CALM      30.16R
6HR MIN TEMP:  47; 6HR MAX TEMP:  57;


$$

INZ030>032-037>040-046>048-054>057-064-065-211300-
CENTRAL INDIANA

CITY           SKY/WX    TMP DP  RH WIND       PRES   REMARKS
GREENWOOD *+   CLOUDY    57  52  83 SE6       30.19R
6HR MIN TEMP:  57; 6HR MAX TEMP:  61;

INDIANAPOLIS   CLOUDY    53  49  86 SE5       30.19R
6HR MIN TEMP:  53; 6HR MAX TEMP:  57;

-EAGLE CREEK   CLOUDY    51  47  86 CALM      30.17R
6HR MIN TEMP:  50; 6HR MAX TEMP:  56;

KOKOMO +       CLOUDY    54  50  86 S5        30.18S
6HR MIN TEMP:  51; 6HR MAX TEMP:  56;

MT COMFORT *+  PTCLDY    52  52 100 S5        30.19S
SHELBYVILLE    CLOUDY    53  48  83 SE7       30.18S
6HR MIN TEMP:  51; 6HR MAX TEMP:  56;


$$

INZ033-034-041-042-049-050-058-059-211300-
EAST CENTRAL INDIANA

CITY           SKY/WX    TMP DP  RH WIND       PRES   REMARKS
MUNCIE         MOCLDY    58  50  75 S5        30.20R
6HR MIN TEMP:  58; 6HR MAX TEMP:  63;

RICHMOND +     PTCLDY    52  52 100 SE8       30.23R

$$

INZ060-061-067>069-081>083-085>088-211300-
SOUTHWEST INDIANA

CITY           SKY/WX    TMP DP  RH WIND       PRES   REMARKS
EVANSVILLE     PTCLDY    52  48  86 CALM      30.17R
6HR MIN TEMP:  50; 6HR MAX TEMP:  56;

HUNTINGBURG +  CLOUDY    54  49  83 SE6       30.18
6HR MIN TEMP:  53; 6HR MAX TEMP:  58;


$$

INZ062-063-066-070>080-084-089>092-211300-
SOUTH CENTRAL AND SOUTHEAST INDIANA

CITY           SKY/WX    TMP DP  RH WIND       PRES   REMARKS
BLOOMINGTON    PTCLDY    51  46  83 S6        30.19R
6HR MIN TEMP:  51; 6HR MAX TEMP:  58;

MADISON *+     CLOUDY    54  50  87 S3        30.23S
SEYMOUR +      MOCLDY    52  48  87 SE6       30.19

$$




USA.gov is the U.S. government's official web portal to all federal, state and local government web resources and services.